Location: Bieg
(49.3499°N, 10.3835°E)
Time: 22:00:55
(UTC+00:00)

Okean 1-7 - Pass Details

Date: 23 May 2024
Orbit: 579 x 604 km, 82.5° (Epoch: 22 June)

Event Time Altitude Azimuth Distance (km) Brightness Sun altitude
Exits shadow 01:30:32 19° 240° (WSW) 1,440 4.4 -13.8°
Maximum altitude 01:32:48 31° 289° (WNW) 1,076 4.2 -13.6°
Drops below altitude 10° 01:36:39 10° 351° (N) 1,959 6.3 -13.3°
Sets 01:39:06 0° 3° (N) 2,871 7.5 -13.1°
